Weather History for Juan Santamaria, Costa Rica

Change the Weather History Date:

Saturday, March 16, 2013

  Actual Average Record
Temperature  
Mean Temperature 76 °F -  
Max Temperature 86 °F 83 °F - ()
Min Temperature 66 °F 65 °F - ()
Cooling Degree Days 11    
Growing Degree Days 26 (Base 50)    
Moisture  
Dew Point 54 °F    
Average Humidity 44    
Maximum Humidity 64    
Minimum Humidity 25    
Precipitation  
Precipitation 0.00 in 0.06 in - ()
Sea Level Pressure  
Sea Level Pressure 29.95 in    
Wind  
Wind Speed 12 mph ()    
Max Wind Speed 18 mph    
Max Gust Speed 30 mph    
Visibility 8.5 miles    
Events      
T = Trace of Precipitation, MM = Missing Value Source: Averaged Metar Reports

Daily Weather History Graph

Daily Weather History Graph

Search for Another Location

Airport:

Trip Planner

Search our weather history database for the weather conditions in past years. The results will help you decide how hot, cold, wet, or windy it might be!

Date:

Astronomy

Mar. 16, 2013 Rise Set
Actual Time 5:43 AM CST 5:47 PM CST
Civil Twilight 5:22 AM CST 6:08 PM CST
Nautical Twilight 4:57 AM CST 6:33 PM CST
Astronomical Twilight 4:33 AM CST 6:57 PM CST
Moon 9:06 AM CST (3/16) 9:58 PM CST (3/16)
Length of Visible Light 12h 46m
Length of Day
12h 04m
Waxing Crescent, 23% of the Moon is Illuminated
Mar 16
Waxing Crescent
Mar 19
First Quarter
Mar 27
Full
Apr 2
Last Quarter
Apr 10
New

Hourly Weather History & Observations

Time (CST) Temp. Heat Index Dew Point Humidity Pressure Visibility Wind Dir Wind Speed Gust Speed Precip Events Conditions
12:00 AM 66 °F - 52 °F 50% 29.88 in 12 mi ESE 13.8 mph - -  
12:00 AM 66.2 °F - 51.8 °F 60% 30.00 in - ESE 13.8 mph - N/A   Clear
1:00 AM 69.8 °F - 46.4 °F 43% 29.98 in - ESE 13.8 mph 25.3 mph N/A   Clear
2:00 AM 69.8 °F - 48.2 °F 46% 29.96 in - ESE 16.1 mph 27.6 mph N/A   Clear
3:00 AM 70 °F - 50 °F 38% 29.79 in 12 mi ESE 13.8 mph - -  
3:00 AM 69.8 °F - 50.0 °F 49% 29.96 in - ESE 13.8 mph - N/A   Clear
4:00 AM 71.6 °F - 50.0 °F 46% 29.95 in - ESE 16.1 mph 29.9 mph N/A   Clear
5:00 AM 69.8 °F - 50.0 °F 49% 29.96 in - ESE 11.5 mph - N/A   Clear
6:00 AM 68 °F - 52 °F 46% 29.81 in 12 mi ESE 12.7 mph - -  
6:00 AM 68.0 °F - 51.8 °F 56% 29.97 in - ESE 12.7 mph - N/A   Clear
7:00 AM 73.4 °F - 50.0 °F 44% 29.99 in - East 15.0 mph 26.5 mph N/A   Clear
8:00 AM 77.0 °F - 53.6 °F 44% 30.01 in - ESE 15.0 mph - N/A   Clear
9:00 AM 79 °F - 54 °F 31% 29.87 in 12 mi ESE 16.1 mph - -  
9:00 AM 78.8 °F - 53.6 °F 42% 30.02 in - ESE 16.1 mph - N/A   Clear
10:00 AM 82.4 °F 81.4 °F 53.6 °F 37% 30.02 in - East 18.4 mph - N/A   Clear
11:00 AM 84.2 °F 83.0 °F 55.4 °F 37% 30.00 in - East 16.1 mph - N/A   Clear
12:00 PM 86 °F - 55 °F 25% 29.88 in 12 mi East 18.4 mph - -  
12:00 PM 86.0 °F 84.5 °F 55.4 °F 35% 29.97 in - East 18.4 mph - N/A   Clear
12:08 PM 86.0 °F 84.5 °F 55.4 °F 35% 29.97 in 6.2 mi ESE 15.0 mph 26.5 mph N/A   Smoke
1:00 PM 84.2 °F 83.5 °F 57.2 °F 40% 29.96 in 6.2 mi East 16.1 mph - N/A   Smoke
2:00 PM 84.2 °F 83.5 °F 57.2 °F 40% 29.94 in 6.2 mi East 12.7 mph - N/A   Partly Cloudy
3:00 PM 84 °F - 57 °F 30%  in 12 mi East 13.8 mph - -  
3:00 PM 84.2 °F 83.0 °F 55.4 °F 37% 29.91 in 6.2 mi East 13.8 mph - N/A   Partly Cloudy
4:00 PM 82.4 °F 81.7 °F 55.4 °F 39% 29.91 in 6.2 mi ESE 10.4 mph - N/A   Partly Cloudy
5:00 PM 78.8 °F - 57.2 °F 47% 29.94 in 6.2 mi ESE 10.4 mph - N/A   Partly Cloudy
6:00 PM 75 °F - 57 °F 44% 29.80 in 12 mi SE 6.9 mph - -  
6:00 PM 75.2 °F - 57.2 °F 53% 29.96 in 6.2 mi SE 6.9 mph - N/A   Partly Cloudy
7:00 PM 73.4 °F - 55.4 °F 53% 29.99 in 6.2 mi SE 9.2 mph - N/A   Partly Cloudy
8:00 PM 71.6 °F - 53.6 °F 53% 30.01 in 6.2 mi East 10.4 mph - N/A   Partly Cloudy
9:00 PM 72 °F - 54 °F 42% 29.84 in 12 mi ESE 6.9 mph - -   Scattered Clouds
9:00 PM 71.6 °F - 53.6 °F 53% 30.02 in 6.2 mi ESE 6.9 mph - N/A   Partly Cloudy
10:00 PM 69.8 °F - 57.2 °F 64% 30.03 in 6.2 mi ESE 11.5 mph - N/A   Partly Cloudy
11:00 PM 69.8 °F - 55.4 °F 60% 30.03 in 6.2 mi SE 16.1 mph - N/A   Partly Cloudy